RH
57 54 52 51 51 49 47 46 47 49 51 51 48 46 48 49 49 49 48 48 50 53 58 59 54 52 56 61 63 61 61 61 61 62 63 66 69 71 73 73 74 74 74 73 72 72 74 77 78 78 76 76 75 74 76 77 79 80 80 83 91 96 98 99 100 95 85 80 79 76 72 70 68 64 63 62 63 68 69 69 68 65 61 58 61
57 54 53 53 53 51 50 49 49 51 52 51 49 46 48 50 49 47 43 42 48 52 53 50 47 50 57 61 62 62 62 62 62 65 66 69 72 75 77 78 78 78 78 77 76 75 76 78 79 79 80 80 79 78 77 76 77 78 79 82 85 90 95 98 100 98 92 86 83 82 78 75 73 69 67 65 63 65 67 67 68 66 62 58 63
56 56 56 56 56 55 53 52 52 53 52 51 50 48 48 50 50 46 41 43 48 49 48 47 49 56 60 62 63 62 62 62 63 64 65 67 69 71 73 76 78 80 80 80 80 80 80 81 81 81 81 83 82 81 81 81 79 78 78 80 81 84 88 93 98 100 97 92 86 84 82 80 76 72 70 69 68 66 66 65 65 67 65 62 63
56 59 60 60 60 59 56 55 54 54 53 50 50 50 50 52 50 46 43 46 48 48 50 53 57 61 63 63 63 62 61 62 61 62 63 63 65 67 68 71 74 77 79 80 82 83 84 84 84 84 82 83 83 82 84 85 85 83 80 79 80 81 82 86 93 97 98 97 93 88 85 82 78 75 73 74 73 72 72 72 71 71 71 69 67
60 61 63 64 64 62 58 56 55 55 53 51 50 50 52 52 49 46 46 49 52 54 57 60 63 65 64 63 62 61 61 61 61 62 64 66 67 69 70 71 72 74 77 80 81 83 84 84 84 84 83 83 83 83 83 85 86 87 84 81 79 79 80 82 86 93 98 98 97 93 88 84 81 77 75 75 76 79 82 82 78 77 76 75 75
69 65 65 67 66 65 61 58 58 57 54 52 51 50 50 50 48 47 50 53 57 60 62 64 65 64 63 62 61 60 60 60 62 63 65 68 69 70 72 72 73 74 75 77 79 80 81 82 83 83 82 83 83 82 82 83 83 85 86 85 81 80 82 83 84 92 98 98 96 94 90 89 87 82 76 75 78 82 85 87 86 84 83 83 82
75 72 70 69 68 66 63 60 60 59 57 54 52 52 51 50 50 51 55 59 62 64 64 65 65 63 61 60 59 59 59 59 60 61 63 66 67 69 71 72 74 76 75 76 77 78 79 80 81 81 81 82 82 81 81 81 81 83 84 86 85 83 83 82 82 86 93 97 98 97 93 91 90 86 80 79 83 84 83 86 93 94 93 92 89
74 74 72 71 70 68 65 63 62 60 59 56 54 55 55 54 54 57 60 62 63 64 63 63 62 59 57 57 58 59 59 58 59 60 61 62 65 67 68 69 71 73 73 73 74 76 77 77 78 78 79 79 80 82 82 82 83 82 82 83 84 84 83 82 82 83 86 91 95 97 96 95 93 90 86 88 91 89 85 85 91 93 92 93 93
73 75 74 73 73 72 68 66 64 62 60 57 57 58 57 58 59 60 62 64 63 61 60 59 57 54 54 56 58 59 59 59 59 59 59 60 62 63 64 65 66 67 69 70 70 72 72 73 74 74 75 75 76 77 77 78 79 79 81 82 82 83 84 83 83 83 85 88 89 91 96 98 97 92 90 89 88 85 84 86 89 89 90 93 96
73 73 74 73 72 73 72 69 65 63 60 59 58 58 59 60 61 62 63 63 61 59 58 57 53 53 56 58 58 59 58 58 57 55 56 57 59 62 64 65 65 65 66 67 68 69 70 71 71 71 71 71 72 73 73 72 73 73 74 77 79 82 83 83 83 82 84 87 87 88 92 96 96 93 89 85 84 83 83 85 88 89 92 95 96
72 71 73 72 68 67 68 68 66 63 61 59 60 60 60 60 60 61 62 61 61 60 58 55 54 56 59 59 58 58 57 57 57 56 57 58 60 63 65 66 66 66 67 67 67 68 69 70 70 69 69 69 69 71 72 73 73 72 71 72 73 76 79 82 83 82 82 83 84 85 89 90 90 92 90 83 82 85 83 83 85 88 91 94 94
72 72 74 72 68 65 66 69 69 64 61 60 61 61 61 61 61 60 61 61 62 60 56 57 59 61 60 58 58 59 58 58 59 60 61 61 62 65 66 67 67 67 68 69 69 69 69 69 70 69 69 69 69 69 70 70 71 72 73 73 72 72 74 76 79 81 81 81 82 82 84 86 84 87 90 87 83 83 83 83 84 86 88 90 92
72 73 74 74 73 70 70 73 69 64 62 61 61 62 61 60 59 60 63 63 61 59 60 61 61 59 57 56 57 58 58 59 60 61 63 63 64 65 66 66 67 67 67 68 68 69 69 69 70 70 70 70 71 71 71 70 70 70 72 72 72 72 72 72 73 75 76 78 81 80 79 81 81 81 83 86 85 83 83 84 84 84 86 87 88
72 74 76 77 75 71 70 70 66 63 63 61 61 60 58 56 58 62 63 61 60 61 62 59 55 53 53 53 54 55 56 57 59 61 63 65 66 66 66 66 65 65 66 67 67 68 67 68 68 69 69 70 71 72 73 73 73 72 71 71 72 72 73 73 72 71 72 76 81 81 77 76 78 76 76 80 84 84 82 80 81 83 84 85 84
77 76 79 79 77 72 69 66 64 63 62 61 59 56 54 56 61 63 62 60 61 60 56 52 51 50 50 49 48 49 49 51 54 58 60 63 65 66 67 67 66 66 66 66 66 66 66 67 67 68 69 69 70 72 72 73 74 74 73 73 72 72 72 73 73 72 72 75 78 80 79 77 77 76 75 74 76 80 80 78 77 78 81 83 83
83 80 82 82 80 76 70 65 64 63 60 58 55 53 54 58 61 62 61 59 57 53 51 51 49 47 44 42 40 42 45 49 53 57 59 61 64 65 67 68 69 69 68 67 66 65 65 65 66 67 67 68 70 71 72 73 74 74 75 74 73 73 72 72 73 72 72 73 74 75 75 75 74 74 75 76 76 77 79 79 77 76 79 83 82
83 80 81 81 81 78 71 65 64 61 57 55 52 53 57 60 61 60 58 54 53 52 51 48 45 43 39 36 37 40 44 48 53 58 61 64 66 67 69 71 72 71 70 69 68 67 67 66 66 67 68 68 69 71 72 74 75 76 77 76 75 75 75 74 73 72 72 72 72 72 71 70 71 72 73 76 77 79 82 82 79 77 79 84 84
82 80 78 77 77 74 68 64 62 57 53 52 51 55 58 59 59 57 53 52 52 49 46 43 40 38 36 35 39 43 45 48 53 59 63 65 68 71 73 76 76 75 73 72 71 70 69 69 69 70 71 72 71 72 73 74 76 78 79 78 77 77 76 75 75 74 74 73 72 72 70 67 70 77 79 76 77 81 84 82 79 78 79 82 82
80 79 77 76 73 67 63 61 58 53 51 51 53 57 58 56 55 53 49 49 47 43 43 42 36 34 36 38 40 43 47 51 55 60 64 66 69 72 76 80 81 80 78 77 75 74 73 73 74 74 75 75 75 76 76 76 77 79 80 80 80 80 78 77 76 75 75 75 74 74 72 70 73 80 83 82 82 85 85 81 78 78 78 78 78
76 73 73 75 71 65 61 57 52 49 51 54 55 55 53 49 48 47 45 45 43 42 44 43 37 36 38 38 36 37 43 49 55 61 65 68 72 75 79 83 85 85 84 82 81 80 79 78 78 78 78 79 79 80 80 79 80 82 82 82 82 81 81 79 78 77 76 76 76 74 75 76 77 78 81 83 85 88 87 83 79 77 76 76 76
73 71 72 70 65 62 58 53 49 49 51 52 50 47 44 42 42 43 44 45 46 45 47 47 45 42 38 33 30 32 38 47 56 63 67 71 76 79 83 87 88 88 89 88 87 86 85 84 83 82 83 83 83 84 84 84 85 86 86 86 84 81 79 80 80 80 78 78 78 77 76 77 76 75 77 81 86 92 92 87 82 78 74 73 75
71 71 70 66 61 59 55 49 46 45 44 42 41 40 40 40 41 43 46 48 48 48 50 52 52 46 36 29 30 33 39 49 59 65 70 75 79 82 85 88 89 91 93 93 92 91 90 89 89 88 88 88 88 89 89 88 89 90 91 91 90 86 83 82 81 80 79 79 79 80 80 80 79 76 75 79 86 94 97 92 85 81 75 71 71
67 67 69 66 59 52 45 40 38 37 36 36 37 38 39 40 41 43 46 48 50 51 52 53 52 46 34 28 32 38 44 53 61 67 73 78 81 84 87 89 91 93 95 97 96 96 96 95 95 94 95 95 94 94 94 93 92 92 92 91 91 91 90 89 87 84 81 79 80 82 83 83 84 81 78 79 83 92 99 97 88 83 78 74 72
65 66 65 58 46 37 33 33 33 34 34 36 36 35 36 37 38 42 46 49 51 51 49 51 50 43 35 35 39 42 49 57 63 67 75 81 84 86 88 91 94 97 98 99 99 99 99 99 99 99 99 99 99 98 99 99 98 97 96 93 90 91 94 95 92 89 87 84 84 86 86 85 86 84 81 81 81 85 95 100 95 88 84 79 77
66 65 57 43 32 30 31 31 31 33 33 34 33 32 33 34 36 42 47 49 50 48 47 51 49 41 39 45 46 46 53 60 63 67 76 83 87 89 91 94 98 99 100 100 99 100 100 100 100 100 100 99 100 100 100 100 100 100 100 98 96 95 98 98 94 91 91 91 89 90 88 86 85 83 81 82 81 82 92 101 100 96 92 86 83
65 56 46 35 29 30 31 29 30 31 31 31 30 30 31 32 34 39 43 46 48 46 47 51 48 42 43 49 50 50 56 61 63 68 77 85 89 93 95 97 99 100 100 100 99 100 100 100 100 100 100 100 100 100 100 100 100 100 100 100 99 99 100 99 95 91 90 90 90 90 89 86 84 81 82 84 83 84 93 101 100 99 97 91 87
50 41 35 32 29 28 29 29 29 29 29 29 30 30 30 31 33 36 40 43 45 44 47 51 47 43 46 51 51 54 60 63 64 68 78 89 95 98 99 99 100 100 99 100 100 100 100 100 100 100 100 100 100 100 100 100 100 100 100 100 100 100 99 97 94 90 89 88 89 89 88 87 85 84 86 89 88 89 97 100 100 100 98 92 90
37 32 29 28 26 26 27 28 28 28 29 29 29 31 32 32 33 35 37 39 40 40 44 47 43 42 47 53 55 60 66 65 63 68 82 93 97 99 101 100 100 100 100 100 100 100 100 100 100 100 100 100 100 100 100 100 100 100 100 100 100 100 98 96 93 92 90 89 89 90 90 89 88 89 92 93 92 94 99 100 99 99 96 92 92
31 28 26 25 26 27 28 27 27 28 29 31 31 32 33 33 35 36 35 35 36 36 38 40 40 43 50 54 59 68 73 65 60 70 84 90 91 96 99 99 99 100 99 98 99 100 100 100 100 100 100 100 100 100 100 100 100 100 100 100 100 100 100 98 97 95 94 92 93 93 92 92 93 95 97 97 97 98 100 100 99 98 95 92 93
28 27 28 27 27 28 28 27 29 30 32 33 34 34 34 35 36 36 34 33 34 36 37 38 40 47 53 55 57 66 68 61 61 75 85 85 86 91 94 94 96 95 94 96 99 100 100 100 100 100 100 100 100 100 100 100 100 100 100 100 100 100 100 100 100 98 96 94 94 94 93 94 97 99 100 100 100 99 100 100 99 97 95 93 95
29 28 29 28 28 29 30 30 32 33 33 34 34 35 37 39 38 34 31 31 33 35 37 40 43 50 57 59 58 58 54 53 63 78 83 83 87 90 91 93 93 91 92 96 99 100 100 100 100 100 100 100 100 100 100 100 100 100 100 100 100 100 100 100 100 100 98 96 95 96 96 97 99 100 100 100 100 100 100 100 99 97 94 92 93
27 28 29 29 30 31 32 32 33 33 34 35 36 37 37 36 34 29 27 29 31 33 36 41 46 51 56 59 62 57 49 50 65 78 81 83 87 90 91 93 92 91 94 97 99 100 100 99 100 100 99 100 100 100 100 100 100 100 100 100 100 100 100 99 99 99 100 99 98 99 100 99 100 100 100 100 100 100 100 100 99 96 95 93 93
28 30 31 32 32 32 33 34 34 35 36 35 34 34 31 28 27 26 25 27 29 31 34 38 43 46 51 57 61 56 48 53 67 78 82 86 90 91 91 93 93 94 96 98 99 100 100 99 100 100 100 100 100 100 100 100 99 100 100 99 99 99 98 98 98 98 100 100 99 99 100 99 100 100 100 100 100 100 100 100 98 96 94 93 94
31 33 33 33 33 34 35 36 36 37 37 34 31 28 24 23 24 26 28 29 29 30 33 35 37 41 47 55 57 52 48 55 67 77 85 90 93 92 92 93 94 94 96 99 100 100 100 100 100 100 100 100 100 100 100 100 99 98 98 99 99 98 98 99 99 99 100 100 100 100 99 99 100 100 100 100 100 99 99 98 97 95 93 92 93
32 33 33 32 33 35 36 36 36 36 35 33 30 25 21 22 24 26 29 32 32 32 34 35 36 40 45 50 52 49 49 57 68 78 88 93 94 94 95 96 96 96 97 99 100 100 100 100 100 100 100 100 100 100 100 99 98 98 97 99 100 100 99 100 101 100 100 100 100 100 100 100 100 100 99 100 100 98 98 97 94 93 91 89 91
32 32 32 33 36 38 38 36 35 35 33 29 26 22 20 22 24 27 29 31 31 33 35 35 37 39 41 46 50 50 51 59 72 83 91 94 95 96 98 99 99 99 99 100 100 100 100 100 100 100 100 100 100 100 100 99 100 99 99 100 100 100 100 101 101 101 100 100 100 100 100 100 100 100 99 99 98 96 95 94 92 91 89 87 88
33 33 34 36 38 39 40 39 37 35 30 24 22 22 22 24 26 28 30 31 30 32 35 36 37 39 42 47 53 54 54 60 73 85 92 96 97 98 100 100 100 100 100 100 100 100 100 100 100 100 100 100 100 100 100 100 100 100 100 100 100 100 100 101 101 100 100 100 100 100 100 100 100 99 98 97 96 94 93 92 91 89 87 85 84
34 34 36 38 39 42 43 39 33 30 27 24 23 23 23 25 27 29 32 32 31 32 35 36 37 42 49 54 57 57 57 64 77 87 94 98 99 99 100 100 100 100 100 100 100 100 100 100 100 100 100 100 100 100 100 100 100 100 100 100 100 100 100 100 100 100 100 100 100 100 100 100 99 98 96 94 93 92 91 90 89 87 85 83 80
37 37 39 41 42 45 46 41 34 29 27 27 27 26 27 30 32 34 35 34 32 33 35 36 38 44 53 58 59 60 65 74 87 96 99 100 100 100 100 100 100 100 100 100 100 100 100 100 100 100 100 100 100 100 100 100 100 100 100 100 100 100 100 100 100 100 100 100 100 99 100 99 97 95 93 91 90 90 88 88 86 84 82 80 78
39 39 42 44 45 47 47 45 40 33 30 33 36 37 38 38 37 36 35 33 33 34 36 37 40 46 53 58 62 66 72 82 92 99 100 99 100 100 100 100 100 100 100 100 100 100 100 100 100 100 100 100 100 100 100 100 100 100 100 99 99 100 99 99 99 99 98 98 98 97 97 95 93 92 90 89 88 87 85 84 83 81 79 78 77
43 43 44 45 47 48 44 40 38 37 37 39 40 39 36 34 32 31 31 32 34 36 37 38 41 46 50 55 60 65 72 80 90 99 101 100 100 100 99 100 100 100 100 100 100 100 100 100 100 100 100 100 100 100 100 100 100 100 100 99 99 98 97 96 95 95 95 95 94 93 91 89 88 88 86 85 85 84 83 83 81 78 75 74 72
45 45 45 45 47 47 44 41 41 43 42 40 38 35 32 32 31 30 31 33 36 37 38 40 42 44 48 52 56 63 69 75 85 96 101 100 100 100 100 100 100 100 100 100 100 100 100 100 100 100 100 100 100 100 100 100 100 100 100 99 98 98 97 95 92 90 89 88 87 86 83 82 81 81 80 81 82 82 82 81 78 73 70 69 68
44 45 48 49 49 50 49 47 45 45 45 45 43 40 37 36 36 35 33 33 35 37 39 40 42 44 47 49 53 61 69 73 81 93 100 100 100 100 100 100 100 100 100 100 100 100 100 100 100 100 100 100 100 100 100 100 100 99 99 98 97 97 97 96 93 90 88 86 85 84 81 80 80 81 82 84 84 83 81 76 72 69 69 69 68
49 50 51 53 53 52 51 50 48 50 53 54 52 49 46 45 46 45 40 37 38 40 41 41 43 44 46 48 52 60 69 75 80 89 97 100 100 100 100 100 100 100 100 100 100 100 100 100 100 100 100 100 100 100 100 100 99 99 98 97 95 95 95 94 93 92 90 88 88 86 85 85 85 85 85 84 82 78 75 71 69 70 71 70 70
51 51 51 52 52 51 52 53 53 54 56 56 56 57 58 58 59 58 52 48 48 49 47 45 45 45 46 49 52 60 69 76 79 84 92 97 98 98 99 100 100 100 100 100 100 100 100 100 100 100 100 100 100 100 100 100 99 98 97 96 95 93 92 91 91 90 88 87 86 86 85 85 83 82 80 77 74 72 71 70 70 69 69 68 70
52 52 53 54 54 54 57 57 56 56 57 60 64 66 66 67 69 70 68 65 64 64 61 57 55 53 53 54 56 60 68 74 77 80 87 93 96 96 97 98 99 99 99 98 99 99 100 100 100 100 100 100 100 100 100 100 99 99 98 96 95 93 90 87 86 86 86 85 85 84 83 81 78 75 73 72 70 70 71 70 68 66 65 66 68
56 56 57 59 61 63 65 65 63 64 65 68 71 73 73 73 74 75 76 75 75 75 75 72 70 68 66 65 65 66 68 72 77 80 83 89 95 96 95 94 95 96 96 96 97 98 99 100 100 100 100 100 99 100 100 100 99 99 97 96 96 94 90 87 86 85 84 83 81 80 79 77 75 73 72 71 71 70 70 70 68 67 66 67 68
60 61 62 63 65 68 71 73 74 75 75 76 78 79 78 77 78 79 81 82 83 83 84 82 80 79 77 74 73 72 70 72 77 80 83 88 94 97 95 92 90 91 94 96 96 96 98 99 99 99 100 100 99 99 100 100 100 99 98 97 96 94 91 88 88 87 85 83 82 80 79 78 77 76 75 74 73 73 73 74 73 72 70 70 70
65 67 69 69 71 74 78 80 83 86 87 87 87 87 85 85 84 84 85 87 87 88 89 89 87 85 83 81 79 77 75 77 81 84 85 87 92 97 97 92 87 89 95 98 97 95 95 96 97 97 98 99 100 99 99 99 99 100 100 98 95 92 90 89 90 89 86 84 83 82 80 79 78 78 78 78 78 78 79 79 79 78 77 76 75
69 71 73 75 77 80 83 85 89 94 96 97 97 97 96 95 94 92 92 93 93 93 93 93 91 88 87 87 86 84 82 84 87 90 90 88 89 94 95 91 88 92 99 100 98 97 96 94 94 95 97 98 99 100 99 99 99 99 98 97 95 93 92 91 91 89 87 85 84 82 81 80 80 82 83 83 83 83 84 85 84 83 83 83 81
69 71 73 76 78 81 85 89 94 98 100 100 100 100 100 99 100 99 98 99 99 98 98 98 96 92 90 90 89 88 88 88 88 89 91 90 88 89 91 90 90 96 101 100 97 98 98 95 94 94 95 96 98 99 100 100 99 95 93 92 92 93 93 93 92 91 89 88 87 86 86 86 87 88 89 89 87 87 88 87 86 85 84 83 81
Wind_Speed
39 40 39 38 37 36 34 32 30 28 26 25 25 24 24 23 22 20 18 16 15 14 13 12 10 9 9 9 9 9 10 9 9 10 11 11 11 12 12 12 14 16 18 20 20 21 21 22 24 24 23 24 24 24 24 23 23 23 22 22 23 23 24 23 15 13 25 29 25 25 25 21 21 21 21 23 27 31 32 30 30 31 33 33 29
40 40 39 38 38 37 34 32 30 28 27 26 25 24 24 23 21 19 17 15 14 13 13 11 9 9 10 10 10 9 8 8 9 10 10 10 10 10 10 12 13 15 17 18 20 20 20 22 24 25 23 23 24 24 24 24 24 25 25 23 24 25 23 23 20 15 19 26 26 26 26 24 23 23 22 23 25 27 29 29 29 31 33 33 30
41 40 39 38 37 36 34 32 30 29 27 26 26 25 24 22 20 18 16 14 14 13 11 9 9 9 10 9 8 7 7 8 9 9 10 11 11 12 13 14 15 16 17 18 19 19 20 22 23 24 23 23 24 24 24 24 23 24 26 25 24 25 24 23 22 18 18 23 24 25 25 25 26 26 26 26 26 26 28 30 32 34 34 34 31
40 37 37 36 35 34 33 32 31 30 28 27 26 24 23 21 19 17 15 14 13 11 10 9 9 10 9 8 7 7 7 8 9 10 12 14 15 16 17 17 17 18 20 20 19 19 20 21 22 23 22 23 24 25 24 23 22 22 24 26 25 25 24 24 23 22 21 21 21 22 25 25 26 27 27 27 27 27 28 29 30 32 33 32 31
39 38 35 34 33 33 33 32 31 31 30 28 26 24 22 20 17 15 14 13 12 10 10 10 10 9 8 7 7 6 7 9 10 12 14 15 16 17 17 18 19 19 19 19 19 19 20 21 22 22 22 22 24 24 24 23 23 23 24 25 25 25 25 24 23 22 23 23 22 21 22 24 25 26 28 28 27 25 25 26 28 29 30 31 32
27 33 34 33 32 33 33 32 32 31 29 27 25 23 21 18 16 14 13 12 11 10 10 9 9 8 7 7 7 7 8 9 11 13 14 15 15 16 17 18 19 19 19 19 19 20 20 21 22 22 22 22 23 24 24 24 25 25 24 24 25 24 25 24 21 19 20 24 26 24 22 23 24 26 27 29 28 26 24 24 26 28 29 30 31
22 25 28 30 31 32 32 32 31 30 28 26 24 21 19 17 14 13 12 11 11 10 9 9 8 8 7 7 8 9 9 11 13 15 16 17 17 17 17 18 19 18 19 19 19 20 20 21 22 22 22 22 23 24 25 25 24 24 24 24 24 24 26 26 23 20 19 19 22 25 24 23 24 25 26 28 28 27 26 25 24 26 28 29 30
25 25 26 27 28 29 29 29 29 28 27 24 22 20 18 15 13 12 12 11 11 10 9 9 8 8 9 10 10 10 11 13 15 17 19 20 20 20 20 20 21 20 20 20 20 20 21 21 22 22 23 23 23 23 23 23 23 24 25 25 25 26 27 27 25 22 20 19 19 21 21 20 22 21 20 22 23 24 28 28 26 27 30 30 30
30 27 26 26 25 24 24 25 26 25 24 23 21 19 16 14 13 12 12 11 10 10 9 9 9 10 11 11 10 10 12 14 17 19 21 21 21 22 22 23 24 24 23 22 22 23 23 23 23 24 24 25 25 26 27 27 27 28 27 26 26 27 27 27 25 22 19 18 19 20 18 16 18 19 17 20 24 26 28 28 26 26 29 29 28
32 29 27 27 25 23 23 23 24 24 24 22 20 18 15 13 12 12 12 11 10 10 9 9 11 12 11 11 11 11 13 16 18 20 21 21 22 23 24 25 25 25 26 25 25 25 25 25 25 25 26 27 27 28 29 30 31 31 32 31 29 28 28 27 27 24 21 18 18 19 17 16 18 19 21 25 28 27 25 26 26 23 21 20 22
34 32 31 32 31 27 24 24 24 24 24 22 20 17 14 12 12 12 11 11 10 9 9 10 11 11 10 9 11 13 15 17 19 20 21 22 23 24 24 25 26 27 27 27 27 27 27 26 26 26 26 27 27 27 28 29 30 30 32 32 32 32 31 30 28 26 23 21 20 20 18 18 20 19 20 25 27 26 26 27 26 23 20 17 15
34 34 34 35 37 33 29 27 27 26 24 22 19 16 14 13 12 12 12 11 9 9 9 9 8 7 7 9 12 15 16 18 19 21 22 22 23 23 24 25 26 27 28 27 28 28 28 28 27 27 27 27 27 28 29 29 29 30 30 32 32 33 34 34 32 29 26 24 23 23 22 21 23 22 20 21 24 25 26 25 24 25 25 23 20
33 33 32 33 35 34 32 31 30 28 25 22 18 15 14 12 12 12 11 9 8 8 7 5 4 6 10 13 15 16 18 19 20 21 22 23 23 24 24 25 27 28 28 28 29 29 29 29 29 29 28 28 28 28 29 30 30 30 30 31 33 34 34 35 36 35 33 31 28 28 27 24 25 26 23 22 23 25 25 23 25 27 26 26 26
33 32 31 33 34 35 35 36 33 29 25 21 17 15 13 12 11 11 9 7 7 6 3 3 6 9 12 14 15 17 19 21 22 23 23 24 25 25 26 27 28 29 30 29 29 30 30 30 30 29 28 28 28 28 28 29 30 31 31 31 32 33 32 33 34 34 35 35 32 31 31 28 29 31 29 26 26 26 27 27 28 30 29 25 23
30 32 32 33 35 37 39 39 35 30 26 21 17 14 12 12 11 10 8 7 6 4 4 6 8 10 13 15 18 20 23 24 25 25 25 25 26 27 28 29 30 31 30 30 30 30 30 29 29 29 28 28 27 27 28 29 30 32 33 33 33 33 33 33 32 31 32 32 30 29 28 27 28 30 30 31 32 31 30 30 31 31 29 25 20
20 26 28 29 31 36 39 38 34 30 25 20 17 15 13 12 11 10 8 6 5 5 6 6 8 11 14 16 20 23 25 27 27 27 27 27 27 28 30 30 31 30 30 30 30 30 29 28 28 29 29 28 28 27 28 30 32 33 34 35 36 37 37 36 33 33 34 34 33 33 31 30 30 29 29 30 34 36 33 30 29 26 24 20 18
20 22 25 26 27 31 34 34 31 27 23 19 17 15 13 12 11 9 7 6 6 7 6 7 10 13 13 15 19 23 25 27 27 27 27 27 28 29 30 30 30 30 30 30 29 29 29 29 29 30 30 30 29 29 29 29 32 34 34 35 35 35 37 36 34 35 36 37 39 39 38 36 34 32 31 30 32 36 34 29 27 27 23 17 13
23 26 30 32 34 33 32 30 28 24 20 18 15 13 12 10 10 8 6 7 8 7 8 10 11 11 11 14 19 23 25 27 27 27 27 28 28 30 30 30 29 29 30 30 30 30 30 30 30 30 31 31 30 30 30 30 33 34 33 34 34 33 34 32 31 32 33 34 37 39 38 36 33 32 31 30 31 35 38 35 32 32 27 20 17
23 26 30 32 35 34 31 29 26 23 19 16 14 13 11 9 8 7 7 9 10 10 12 12 9 8 9 15 20 23 26 28 27 27 28 28 28 29 29 29 29 29 29 30 29 29 30 30 31 31 33 32 31 31 31 31 33 35 34 33 33 32 31 30 30 31 30 30 32 33 33 33 32 31 30 28 27 32 41 43 38 36 32 27 24
30 29 29 29 31 31 29 26 23 21 19 16 13 12 9 7 7 8 10 12 13 13 14 12 7 6 9 16 21 23 26 28 27 27 28 28 28 28 28 28 28 29 30 30 30 30 30 30 30 31 32 32 32 32 32 32 34 36 36 35 33 31 30 30 30 30 29 29 31 31 31 31 32 32 30 28 25 27 38 46 43 41 38 32 29
33 32 32 31 31 30 27 24 21 18 18 16 13 10 9 8 9 12 13 14 15 15 14 10 6 6 12 17 20 22 25 26 26 26 27 27 27 27 28 28 28 30 32 32 32 32 32 31 32 32 33 33 34 34 34 34 34 36 38 38 37 36 34 33 31 29 29 29 28 30 31 32 32 33 32 29 26 24 32 44 46 45 43 38 32
37 35 34 33 32 30 27 24 21 18 16 14 12 11 11 10 11 13 14 15 16 14 11 8 7 9 14 17 19 22 24 25 25 26 27 27 27 26 27 28 29 30 32 32 32 33 34 34 35 35 35 36 38 38 38 38 37 38 40 40 39 39 39 38 36 33 31 31 29 30 32 32 32 34 33 31 27 24 27 38 45 45 46 45 40
38 36 35 34 33 29 25 22 20 17 15 14 13 12 11 10 10 13 15 15 15 13 9 9 10 12 16 17 19 21 24 25 25 26 27 27 26 26 27 29 29 30 32 34 34 35 37 37 38 38 38 39 40 40 40 40 40 40 41 40 40 40 40 40 38 35 33 32 31 31 32 31 31 32 33 31 28 25 25 32 41 45 46 46 44
37 35 34 34 31 26 23 21 19 18 16 14 12 10 8 9 11 13 15 15 13 12 11 11 13 14 16 18 19 21 24 25 26 28 28 27 26 27 28 29 30 31 34 36 36 37 38 39 40 40 40 41 41 41 41 41 41 41 41 40 40 40 40 39 37 33 31 30 30 29 30 30 30 30 31 30 28 26 27 29 36 42 42 40 39
38 36 33 30 27 25 23 20 19 18 15 13 10 8 7 9 10 12 14 14 13 13 13 14 15 15 16 18 19 22 24 26 27 29 28 27 26 27 28 30 31 33 34 36 37 38 40 41 42 43 43 43 43 43 43 43 43 43 42 41 40 40 38 37 34 31 29 27 27 27 28 29 31 32 31 29 28 27 26 27 31 33 33 31 29
36 35 32 28 26 25 23 20 18 17 15 11 8 7 7 7 7 9 12 14 14 15 15 16 16 16 16 17 19 23 25 27 28 29 28 27 27 27 29 31 32 33 35 37 38 39 40 41 41 41 41 41 41 41 40 40 39 39 40 41 41 39 37 33 31 29 27 26 26 26 27 29 30 31 29 28 28 27 25 25 28 28 29 28 24
35 34 32 30 26 24 22 20 17 14 13 10 8 7 5 3 5 8 12 14 15 16 17 18 18 16 16 17 18 23 26 27 28 30 29 28 28 28 30 32 33 34 35 36 37 37 38 39 39 39 39 39 39 39 39 38 36 35 35 36 38 38 36 34 32 29 27 27 27 27 27 27 28 29 27 26 26 25 23 26 28 27 28 28 23
34 32 31 28 23 19 19 19 15 12 11 10 7 5 3 3 5 7 9 11 13 16 18 19 19 16 15 16 19 22 25 27 29 31 31 30 30 30 31 32 33 33 34 36 37 37 37 38 37 36 36 35 35 35 35 35 34 34 33 33 34 35 36 35 34 32 30 28 27 26 25 25 26 27 27 26 24 23 23 27 29 28 29 28 24
32 29 26 23 20 18 17 15 12 11 13 11 8 5 2 3 4 5 6 9 12 15 16 18 18 15 13 15 18 21 25 28 31 33 32 30 29 30 31 32 34 35 35 36 36 36 34 33 31 31 30 29 29 28 28 28 29 30 31 32 31 32 33 34 33 33 31 29 27 26 25 25 26 27 26 25 23 23 25 27 29 29 29 28 24
30 27 23 20 19 18 16 13 11 13 14 11 7 4 2 3 3 3 6 9 12 14 16 18 17 14 14 16 19 21 26 30 34 33 31 29 28 29 31 33 34 34 33 33 32 30 28 26 25 25 25 25 24 24 23 23 24 25 27 29 31 31 31 32 32 32 31 30 29 28 27 26 26 26 26 24 23 24 26 28 29 30 29 27 23
29 27 25 21 19 17 16 15 15 14 12 9 6 3 2 4 3 3 7 11 13 15 17 19 18 15 15 18 20 23 27 32 34 32 30 29 29 30 32 33 33 31 29 29 27 25 22 21 21 22 23 23 23 22 22 20 21 23 24 25 28 30 31 31 31 32 31 31 31 30 29 28 27 27 27 26 25 26 26 26 28 29 28 27 26
28 25 23 21 19 17 18 18 16 13 10 8 7 6 5 4 2 4 7 10 13 15 17 18 19 19 19 19 21 24 29 33 33 31 29 28 29 30 32 32 30 28 26 25 23 21 20 20 20 21 22 22 21 22 22 20 21 22 22 22 24 27 30 33 33 32 31 30 30 29 28 28 29 28 28 28 27 26 26 26 26 26 25 25 27
25 22 23 23 21 19 19 17 13 11 11 10 9 8 6 3 2 5 7 10 12 14 14 15 16 19 20 21 21 25 30 33 33 30 28 28 29 30 31 31 28 24 22 21 21 20 21 21 20 21 22 22 22 21 20 21 21 22 22 22 23 25 29 32 33 32 31 30 29 28 28 29 30 29 28 29 29 28 27 26 26 26 25 24 25
24 24 24 22 20 18 18 15 12 12 12 10 9 7 4 0 2 5 8 11 13 14 13 13 13 14 16 18 20 25 30 33 32 29 27 27 28 30 30 29 27 25 22 20 20 21 21 22 22 23 23 23 24 22 19 18 19 20 21 22 23 24 26 28 28 29 30 30 29 29 30 31 31 30 28 27 27 27 26 26 26 26 26 26 25
26 24 21 19 18 18 16 14 12 12 12 10 8 5 2 2 3 6 9 12 13 15 14 13 14 14 15 17 21 26 30 32 31 28 26 26 27 28 28 27 26 26 25 23 22 22 22 22 23 23 24 24 23 22 18 16 15 15 17 18 20 22 23 24 26 29 31 30 29 30 30 31 31 31 29 28 27 25 24 25 26 26 27 28 27
23 21 19 18 18 16 14 13 12 12 12 9 6 4 2 2 4 7 10 12 13 14 14 13 14 15 16 18 21 26 30 32 30 27 25 25 26 27 25 24 24 24 24 24 24 24 23 23 23 24 24 24 23 20 16 13 12 11 11 13 14 16 17 19 22 25 28 28 28 29 30 30 30 30 29 28 28 27 27 27 27 28 29 31 31
24 21 19 17 15 13 12 12 12 12 10 8 5 3 0 3 6 8 11 12 13 13 13 13 14 16 18 19 22 26 31 33 31 28 26 26 26 26 24 24 24 23 23 24 25 25 24 24 24 24 24 23 21 18 14 11 9 8 8 8 9 10 11 13 16 19 22 24 26 28 29 29 29 29 28 26 25 24 25 26 25 26 29 31 31
22 19 17 14 12 10 9 11 13 14 10 6 5 4 2 5 7 10 12 12 11 11 11 13 15 16 17 20 23 27 31 34 33 31 29 28 27 27 26 25 24 24 24 25 26 25 24 24 24 23 22 21 19 16 12 9 6 5 5 5 6 8 9 11 13 17 19 21 23 25 26 26 26 28 28 27 26 25 26 27 27 27 28 29 29
17 16 14 12 10 8 7 10 13 13 9 6 6 6 5 7 10 13 14 11 9 9 11 13 14 14 15 18 22 27 30 32 31 29 28 27 27 26 26 26 25 25 25 26 27 26 25 24 24 22 21 19 17 14 11 8 4 1 2 4 7 8 10 12 15 17 19 20 20 21 23 25 25 27 28 28 28 28 28 28 30 31 29 27 27
15 15 13 11 9 8 7 8 9 10 7 4 3 3 5 8 10 12 12 9 9 9 11 12 13 13 14 16 20 24 27 28 28 27 26 26 26 26 26 26 26 26 26 26 27 27 25 24 23 22 21 19 17 14 11 7 4 2 4 6 9 10 12 14 16 18 20 22 22 22 23 25 26 27 27 27 28 30 30 29 30 31 30 29 29
14 13 11 10 8 7 7 8 7 5 1 2 4 6 7 7 7 7 7 7 9 9 11 12 12 12 13 15 18 21 24 26 27 26 25 24 24 25 25 25 25 26 27 27 27 27 26 24 23 23 22 20 17 14 12 10 7 6 7 9 11 13 15 16 18 20 22 24 25 24 24 25 27 27 27 28 29 30 31 30 30 30 31 31 31
13 11 10 9 8 6 6 6 5 5 6 8 10 10 9 7 5 6 6 8 9 10 11 12 11 12 13 15 16 19 23 26 27 26 24 23 23 23 24 25 25 26 27 27 27 27 25 24 24 24 23 22 20 17 15 13 11 10 10 11 13 15 16 18 19 22 24 25 26 27 26 26 27 28 29 30 30 30 30 31 32 32 32 32 32
13 11 9 8 7 7 8 9 10 13 15 16 16 14 11 8 7 7 7 8 8 9 10 11 11 11 13 15 16 18 21 24 26 25 23 22 22 23 23 24 24 25 26 26 26 26 25 25 25 25 24 24 22 19 17 15 14 14 14 14 15 16 17 19 20 22 24 26 27 28 29 29 29 30 31 31 31 31 31 31 32 33 33 33 33
15 14 14 14 14 14 15 16 17 18 18 18 18 16 13 11 11 11 10 9 7 8 9 9 9 11 13 16 17 18 19 22 24 25 23 22 21 22 22 22 23 24 25 26 26 26 26 26 26 26 25 24 23 21 19 17 16 17 16 17 17 18 18 18 19 21 25 27 28 29 30 30 31 31 31 32 33 33 32 31 31 32 33 34 33
21 22 21 21 20 20 20 19 19 19 19 19 18 17 16 16 16 16 15 13 11 11 10 8 8 9 12 14 16 17 17 19 22 23 23 22 21 21 21 21 21 22 23 24 25 26 26 26 27 27 27 26 25 23 22 21 19 19 19 19 20 20 19 19 21 23 25 28 29 30 30 30 30 31 31 32 33 33 32 32 32 32 32 32 31
24 24 23 23 22 21 20 20 20 20 20 20 19 18 17 17 18 19 18 17 16 15 14 12 10 10 11 12 14 16 16 16 18 21 22 21 20 19 19 19 20 20 21 22 23 24 25 26 27 27 28 27 26 25 24 23 22 22 21 21 21 22 22 23 24 25 27 28 30 31 31 31 31 31 32 31 31 31 32 32 33 32 31 31 31
24 23 22 22 21 20 20 20 20 21 21 20 19 18 17 17 17 18 18 17 17 17 16 15 14 14 14 14 14 15 15 14 14 16 19 20 19 18 18 18 18 19 20 21 22 22 24 25 26 27 27 28 28 27 27 25 24 24 23 23 23 24 24 26 27 28 29 30 31 33 34 33 33 33 33 33 32 33 33 34 33 33 32 31 31
23 23 22 21 21 20 21 20 21 21 21 20 19 18 17 17 17 17 17 17 17 16 16 16 16 16 16 16 16 16 16 15 13 12 14 17 17 16 16 17 17 18 19 20 21 21 22 24 25 26 27 27 28 28 28 27 26 26 25 25 25 25 26 28 29 30 31 33 34 35 36 36 35 35 34 35 35 35 35 34 33 32 32 31 31
24 24 24 23 23 22 22 21 22 21 21 20 19 19 18 17 17 17 16 16 16 15 15 15 15 16 16 17 17 17 17 17 16 13 12 13 14 14 13 14 16 18 18 18 19 20 21 22 23 24 25 26 27 27 27 27 27 27 27 26 26 26 27 29 30 31 32 34 34 35 36 37 36 36 35 35 35 34 34 33 32 32 31 30 30
24 24 24 24 24 22 21 21 22 21 20 20 20 19 18 18 18 17 16 16 16 15 14 14 14 14 15 16 17 17 17 18 18 16 13 11 11 12 12 12 14 16 17 17 17 18 20 21 22 23 24 25 26 27 27 27 27 27 27 26 26 27 28 29 30 31 32 33 34 34 35 36 36 35 35 34 34 33 33 32 31 31 30 28 27
23 23 23 23 22 21 21 21 21 20 20 20 20 19 19 18 18 17 17 16 16 16 15 14 14 14 14 15 16 17 18 18 18 18 16 12 9 9 10 10 10 12 15 17 17 17 18 19 20 22 23 24 25 25 26 26 26 25 25 26 26 27 27 28 29 30 31 32 33 34 34 35 35 35 34 33 34 33 32 31 30 29 28 27 26
Wind_Direction
203 204 206 206 207 206 206 209 211 212 212 211 211 208 206 206 205 206 206 205 208 212 215 220 230 245 250 253 262 270 276 283 293 299 301 303 300 297 296 296 296 298 300 300 301 303 304 305 303 303 304 304 302 301 299 298 299 302 306 308 302 288 261 240 231 252 262 261 258 260 263 261 257 254 252 250 245 243 245 243 240 243 243 240 239
204 206 207 207 207 206 205 207 209 211 211 210 211 208 206 207 208 209 209 210 213 218 225 235 248 255 255 259 266 269 275 287 294 295 296 298 298 294 294 297 297 296 297 298 299 300 301 300 300 302 305 305 303 302 300 298 297 298 301 304 305 303 289 263 247 246 259 260 257 257 257 254 254 254 252 252 253 252 253 251 246 244 243 239 239
207 206 207 208 208 205 203 205 207 208 208 208 207 206 205 206 208 211 211 213 220 226 234 248 258 258 258 259 261 265 278 290 293 296 301 305 306 304 303 303 300 298 298 298 298 297 296 295 295 299 302 303 302 301 302 300 297 296 297 299 301 302 301 288 270 258 259 261 256 250 249 248 250 255 256 255 255 253 252 251 247 243 241 239 240
205 205 206 207 207 204 202 203 205 205 205 206 204 203 204 205 208 211 213 217 224 231 241 252 254 252 253 255 261 275 289 299 307 313 315 316 314 313 312 310 305 302 301 299 298 295 293 292 292 295 297 298 298 299 300 301 300 297 294 294 297 300 302 302 289 274 270 271 264 251 245 245 248 253 254 252 250 248 246 244 243 241 240 240 241
203 202 204 205 204 203 201 202 205 204 204 204 203 203 203 205 208 210 214 220 226 234 241 244 245 245 247 253 267 285 300 310 317 318 319 319 318 317 316 313 309 306 303 299 296 293 291 290 290 292 292 292 293 295 297 297 297 297 294 291 293 296 300 303 301 289 275 270 270 262 250 244 243 245 248 248 245 241 238 238 239 240 240 240 240
213 203 200 201 202 201 200 202 203 204 204 204 203 204 205 206 209 213 218 224 227 231 234 235 236 238 245 261 279 293 304 312 315 315 315 317 319 319 318 315 311 306 302 297 293 290 288 288 289 289 288 287 288 291 293 294 294 293 293 292 291 293 296 299 306 305 283 266 264 263 256 246 237 233 238 244 241 234 231 233 234 235 236 236 235
223 212 202 199 201 200 200 202 203 204 205 205 204 206 206 208 213 218 222 225 226 228 231 233 234 242 264 285 296 301 306 312 313 314 315 316 318 318 317 317 313 306 301 297 294 291 287 286 286 285 284 284 284 286 288 290 290 289 290 292 291 292 293 294 300 305 300 286 272 263 258 251 241 233 233 235 235 232 230 228 225 226 228 230 232
207 211 206 200 200 201 201 201 203 204 204 204 205 204 205 209 214 219 223 226 229 234 237 239 250 272 293 299 300 300 303 306 309 312 315 315 315 313 312 311 309 305 301 297 294 292 290 288 286 284 283 282 282 283 284 285 286 287 287 288 289 289 290 292 294 296 298 298 291 280 271 257 247 242 231 221 220 227 231 228 224 224 225 227 230
191 196 198 195 195 200 203 202 202 202 203 202 201 201 204 207 211 217 227 231 235 241 245 256 281 299 303 299 296 295 298 303 308 312 313 313 312 311 309 307 306 304 301 297 293 290 288 287 285 284 283 282 281 280 280 280 281 282 283 284 285 285 286 287 288 289 289 290 292 294 292 277 258 244 222 211 219 229 231 227 225 228 226 222 225
183 185 188 187 190 198 201 200 200 200 200 199 198 199 201 204 212 222 230 236 242 249 260 283 301 304 299 292 291 295 302 307 310 311 311 312 311 310 307 305 304 303 300 298 295 292 289 286 284 283 282 283 282 281 279 278 277 276 276 276 277 278 280 281 280 280 281 280 281 286 291 290 277 252 226 223 229 230 227 222 222 222 215 213 223
182 183 185 185 188 196 199 199 199 198 199 199 197 197 199 206 218 227 234 242 250 259 279 299 301 296 294 296 304 312 316 316 316 314 314 314 311 308 305 303 302 300 298 296 294 292 291 288 286 284 283 282 282 282 282 280 278 275 273 271 270 270 271 273 274 274 274 272 270 271 272 276 285 277 251 237 232 227 224 222 218 209 199 202 219
185 184 183 182 184 187 192 196 196 195 197 198 195 194 201 211 220 231 239 244 255 274 292 297 293 297 313 324 327 326 323 320 319 318 317 315 312 308 304 301 300 298 295 293 292 291 290 289 287 285 284 283 282 282 282 280 279 277 274 272 269 266 265 267 270 270 271 273 270 266 262 262 272 277 268 252 239 229 227 224 216 208 206 208 214
185 184 181 179 176 175 180 185 188 192 195 193 191 192 201 215 226 232 235 240 262 279 282 283 308 333 336 334 330 325 322 321 321 320 318 315 313 308 303 300 298 295 293 291 290 289 288 288 286 284 283 283 282 282 281 280 279 278 276 273 270 267 264 264 265 266 267 269 268 266 263 259 260 264 267 265 252 233 223 222 220 216 215 217 221
182 182 180 177 173 172 176 180 183 187 187 183 185 194 206 221 226 222 223 239 255 255 253 301 327 331 329 329 327 325 325 323 322 321 319 317 313 308 303 299 296 293 291 289 287 286 286 285 284 283 283 283 282 282 281 280 280 279 277 275 271 269 266 263 263 263 263 263 263 264 264 262 260 260 261 264 258 239 224 222 224 222 220 223 229
180 177 177 176 175 174 175 176 176 176 176 177 186 197 207 213 209 206 216 230 232 235 270 300 314 324 331 334 334 332 330 327 325 323 320 318 314 310 305 301 296 293 290 288 286 285 283 282 282 282 283 283 282 281 280 280 279 278 276 274 271 269 267 264 261 259 260 262 265 268 270 268 267 266 263 258 254 250 242 235 232 227 222 223 230
179 172 170 171 174 173 170 168 169 168 168 176 187 194 198 198 197 201 207 212 224 248 271 292 316 330 336 340 339 336 333 330 327 324 321 318 314 311 308 303 298 293 290 288 286 283 281 280 280 280 281 281 282 280 280 279 278 276 274 272 271 269 266 264 262 260 259 261 265 269 272 272 272 274 272 262 252 249 246 238 230 223 216 217 224
185 174 165 167 174 171 164 162 163 163 166 177 185 188 189 189 190 193 198 214 232 248 270 301 320 328 335 341 340 338 336 335 330 325 321 318 314 312 309 304 299 293 290 288 285 282 280 278 278 279 278 279 279 279 279 277 275 274 272 271 270 268 266 265 264 262 259 260 262 265 268 271 272 273 274 269 257 246 235 223 217 213 208 208 213
186 178 173 176 176 168 162 161 162 163 170 179 181 179 178 180 186 194 213 233 240 256 280 296 309 321 333 340 340 338 336 335 332 324 319 317 314 312 310 305 300 295 292 289 285 282 280 278 277 277 276 277 277 277 276 275 273 271 270 270 269 265 264 265 264 262 260 259 261 264 266 268 269 271 270 268 262 245 229 221 217 210 207 210 212
183 182 178 175 168 162 161 163 164 167 172 175 174 170 170 177 191 211 240 249 253 265 273 279 294 314 328 338 342 340 334 331 329 323 318 315 313 312 310 306 301 297 294 291 287 284 281 279 278 277 276 276 275 274 273 271 269 267 266 267 266 264 263 263 262 262 262 260 260 263 266 265 263 266 268 268 264 246 231 227 223 213 210 215 213
183 178 169 163 160 159 161 165 168 169 168 165 162 161 166 182 209 235 250 252 254 260 261 266 285 313 329 340 344 341 335 330 326 322 317 314 312 310 308 304 301 299 296 293 290 286 283 280 278 277 276 275 274 274 273 270 267 266 263 261 260 263 265 265 261 260 260 259 259 261 264 265 263 266 269 271 271 254 234 228 225 219 217 217 213
172 163 158 160 160 160 164 169 169 164 159 157 156 164 183 206 226 240 246 246 248 252 254 259 280 313 326 334 338 338 336 330 325 321 317 313 310 308 305 302 300 299 296 293 290 287 284 281 280 277 276 275 274 274 272 269 266 264 261 258 258 260 263 263 262 260 259 260 261 261 263 266 267 268 270 272 277 268 241 229 225 224 223 221 216
162 160 162 164 161 161 165 164 158 152 151 155 163 179 197 212 228 239 243 243 245 246 249 259 276 297 313 323 329 333 333 330 325 322 318 313 309 307 303 300 300 298 295 291 288 286 284 282 281 280 277 276 275 273 271 269 265 263 261 260 260 259 259 259 259 259 258 259 261 262 262 265 267 267 268 269 274 274 253 233 226 225 226 227 224
159 160 163 161 158 158 158 152 149 152 156 163 177 190 200 213 232 243 243 241 241 240 249 266 274 286 301 312 322 329 331 330 327 324 320 314 310 307 303 300 299 295 292 289 288 287 285 283 282 282 279 277 276 273 271 268 265 262 262 262 262 260 258 257 254 253 253 253 255 256 257 259 262 264 265 266 269 274 266 245 231 226 226 228 228
151 151 153 154 152 149 148 150 154 159 164 172 183 190 202 222 238 244 240 237 237 243 256 268 270 279 292 302 316 328 330 328 328 327 322 315 310 307 304 300 298 295 292 290 288 287 286 285 284 282 280 277 275 272 270 267 264 262 260 260 260 259 256 253 250 248 248 248 247 249 251 254 257 261 264 266 268 275 274 256 237 227 224 225 225
142 145 146 147 146 146 150 155 156 160 168 177 182 189 212 232 241 243 238 235 240 250 260 265 266 274 285 294 310 324 328 327 328 328 323 315 309 307 304 301 299 297 294 292 289 288 287 286 285 283 280 277 275 272 269 266 263 260 258 256 255 255 252 248 244 243 243 243 244 246 249 253 255 260 266 267 268 273 270 251 232 222 220 220 220
142 143 144 147 150 150 152 156 159 165 169 169 179 200 221 239 249 247 240 238 245 254 261 262 262 269 282 293 308 322 326 326 327 327 322 315 310 308 305 304 303 301 297 294 292 291 290 288 286 283 280 277 274 270 267 265 263 260 257 253 250 249 247 243 240 239 240 242 244 245 247 252 256 261 266 265 262 265 259 237 219 211 210 208 203
143 143 148 151 151 152 156 157 157 160 163 167 186 202 210 236 249 247 242 241 248 256 260 260 260 267 282 296 312 321 322 322 325 326 323 317 312 310 309 307 306 304 301 299 296 294 292 290 288 284 280 277 274 270 266 263 261 257 253 249 244 242 242 241 239 239 240 242 244 244 245 249 254 258 259 256 252 253 243 223 207 197 195 194 182
140 144 150 150 149 153 157 152 144 144 156 165 168 164 178 226 240 250 253 252 258 263 264 263 265 272 287 302 313 317 315 317 323 326 324 319 316 314 312 310 308 307 304 302 300 298 296 293 289 285 281 277 273 269 264 260 256 252 247 243 239 237 237 238 238 238 238 240 240 240 240 242 245 249 248 244 243 241 228 211 200 189 184 181 167
140 143 148 151 151 148 144 143 144 147 148 143 126 109 131 222 232 256 269 270 275 278 277 277 278 282 294 306 310 308 306 314 325 327 324 322 320 318 315 313 311 309 308 307 306 303 299 294 288 283 279 274 270 266 261 255 251 246 241 238 236 234 232 232 232 232 234 235 235 234 234 236 237 238 233 229 230 227 214 202 193 184 178 175 165
141 141 144 148 149 143 139 142 147 141 134 129 123 122 178 204 204 254 285 288 288 289 289 290 290 289 295 305 310 308 308 317 327 328 325 324 324 322 320 318 316 315 315 316 313 307 300 295 289 286 282 277 271 266 259 250 243 239 236 233 230 229 229 228 228 228 229 230 231 232 231 229 228 224 217 213 214 212 205 198 190 181 174 167 157
141 141 142 144 144 141 135 131 126 120 116 112 107 114 173 193 204 269 297 301 301 300 298 296 292 288 290 298 308 314 319 325 329 328 328 328 328 327 325 324 322 322 323 323 317 308 304 302 299 299 296 288 277 268 261 251 240 235 234 231 227 225 225 225 226 226 225 225 226 227 225 222 218 212 206 204 204 200 194 190 185 178 172 165 155
142 142 139 134 130 125 123 122 117 113 112 107 97 100 123 158 221 294 306 309 311 310 306 298 291 287 287 293 304 316 326 331 331 331 332 333 332 331 330 328 328 329 330 328 321 314 315 315 312 312 311 303 291 278 264 253 244 237 233 229 227 224 223 224 224 221 218 217 217 216 216 215 211 206 201 199 195 189 184 182 179 172 165 159 154
144 139 128 120 117 117 120 121 117 117 119 113 102 102 115 150 267 309 322 329 329 326 319 309 301 295 291 291 303 319 329 334 334 334 336 336 336 335 334 333 334 335 335 333 328 323 324 324 321 319 317 314 311 301 277 257 247 240 234 231 230 227 226 225 224 220 216 214 213 212 213 212 206 200 196 192 187 182 180 178 173 165 156 150 149
131 125 120 119 119 119 117 114 115 123 125 116 108 110 117 102 308 305 311 326 336 338 336 334 332 321 305 300 312 326 334 338 339 339 339 339 340 340 339 339 341 342 340 337 333 331 330 328 326 325 322 320 322 320 302 275 256 244 237 235 233 231 230 226 222 219 218 217 214 212 210 206 199 192 187 183 181 180 178 172 166 159 152 148 147
119 118 120 121 119 116 114 111 116 126 127 123 122 123 104 3 326 303 302 314 324 328 332 344 351 344 329 322 328 336 342 345 345 343 343 344 345 345 345 344 344 343 343 341 339 337 334 331 328 328 326 325 326 325 315 297 275 256 245 241 237 236 236 232 225 221 219 215 211 207 203 197 192 188 182 177 175 173 170 167 164 159 153 148 145
127 128 126 120 114 115 119 121 124 127 127 129 133 129 91 338 312 308 314 322 327 325 329 344 355 351 342 339 341 345 349 351 350 348 348 349 351 352 350 346 342 340 339 340 340 339 337 335 332 331 330 330 330 328 318 306 291 273 258 248 240 235 235 231 224 217 210 204 200 196 191 187 185 182 179 176 174 171 169 167 164 160 155 150 147
131 127 123 117 114 119 125 128 132 134 132 132 141 144 162 303 298 305 318 331 340 338 337 346 353 349 347 348 351 353 356 357 356 354 354 355 358 358 353 346 343 340 338 340 342 341 339 338 337 336 336 337 336 333 325 314 301 283 265 248 230 217 211 206 199 193 187 184 182 181 180 179 179 177 173 168 165 163 162 160 156 153 151 148 146
123 120 120 120 120 120 125 133 138 138 135 142 168 185 244 290 301 315 328 343 357 355 351 353 353 349 348 352 357 359 1 0 359 358 357 358 359 359 354 349 346 344 343 344 345 344 341 341 342 343 344 345 344 340 335 327 312 284 253 226 198 182 173 167 165 165 165 164 166 169 170 169 168 168 165 160 156 154 153 151 147 143 143 144 143
120 121 124 128 126 118 122 137 144 147 152 175 199 213 256 294 312 323 335 356 20 16 2 358 357 354 353 357 1 3 3 2 359 356 355 356 358 358 356 352 349 349 348 348 349 348 346 346 349 352 354 355 355 352 348 343 335 294 196 168 154 147 145 144 145 147 148 148 150 154 155 155 156 158 158 155 153 150 148 147 145 144 142 142 142
125 132 136 134 125 113 110 124 143 157 170 201 248 289 319 329 333 335 344 16 43 30 9 3 2 360 358 1 6 8 5 1 359 356 355 355 357 358 358 356 352 352 353 352 353 354 352 353 357 1 4 6 8 8 8 11 23 78 124 134 132 129 131 135 138 139 139 139 140 142 145 147 149 150 149 149 148 146 144 143 143 142 140 138 136
130 140 143 132 121 119 116 117 131 152 168 349 9 26 30 24 11 3 20 55 59 39 22 15 10 5 2 4 10 14 10 6 3 1 359 359 359 359 1 1 358 358 358 358 359 0 0 2 7 11 14 18 21 24 28 34 47 72 97 110 117 119 123 127 131 134 135 135 136 138 140 143 144 143 142 141 141 141 139 138 137 135 134 133 133
116 126 133 130 132 135 120 105 100 86 73 75 79 77 75 70 52 41 64 79 66 45 36 29 20 14 11 8 11 16 15 12 9 6 3 3 3 3 5 6 5 5 6 6 8 8 8 11 16 19 23 26 30 34 40 44 53 68 85 98 106 111 116 121 125 129 131 132 134 135 136 137 138 137 137 136 136 135 134 133 132 131 130 130 130
107 107 113 118 116 105 89 85 88 89 89 93 93 91 91 90 70 57 77 89 67 43 38 35 28 25 21 16 15 18 17 15 13 11 8 7 8 9 11 12 12 14 15 16 18 19 19 20 24 28 32 35 39 43 47 53 61 71 79 89 96 101 108 114 120 124 127 128 131 132 133 133 133 132 132 132 132 131 131 131 131 131 129 128 128
96 91 91 92 90 87 88 92 95 95 94 94 93 91 90 83 67 61 76 85 64 42 39 35 29 31 29 23 20 19 17 16 16 14 11 13 14 15 16 17 19 21 23 24 27 28 27 28 31 34 38 42 47 51 55 61 69 75 78 84 90 95 101 108 115 121 124 126 127 127 128 129 129 129 130 131 130 130 130 131 130 129 127 127 127
92 91 91 89 87 86 88 90 92 92 92 91 90 86 81 74 67 65 70 72 61 52 49 42 34 34 31 24 19 16 14 15 17 16 15 17 19 21 22 23 25 28 30 31 34 35 34 35 37 39 42 46 50 56 61 65 72 78 82 86 89 92 98 106 114 120 123 124 124 125 125 125 126 126 128 129 130 130 130 130 129 127 126 126 127
90 89 88 86 84 82 81 82 85 86 86 85 84 80 75 71 68 66 67 67 63 59 54 49 45 42 34 24 18 13 8 9 14 18 19 19 21 24 27 28 30 34 36 39 41 42 42 42 44 45 46 49 53 58 64 69 75 79 84 88 92 96 101 108 113 116 118 120 121 122 122 121 121 122 124 125 126 125 125 125 125 124 124 125 127
86 85 84 84 82 80 78 78 80 81 80 80 79 76 73 71 68 66 64 64 62 58 54 50 47 44 41 36 30 23 17 12 13 18 20 21 22 25 29 30 34 38 42 44 47 49 49 50 51 52 53 56 58 60 65 71 77 82 85 90 94 99 105 110 111 112 114 117 119 120 119 117 116 118 120 121 120 119 119 120 121 123 124 125 125
84 83 83 82 81 79 77 76 76 76 76 76 74 72 71 69 66 62 59 58 55 53 50 46 43 42 42 42 39 36 31 25 22 23 24 22 23 26 30 34 41 47 49 49 51 53 55 56 57 58 59 61 63 65 68 72 78 82 86 91 96 102 107 110 110 110 112 114 115 116 116 115 114 114 115 116 116 116 117 118 121 123 124 124 123
84 83 82 80 78 77 75 75 74 74 73 72 71 68 66 64 61 57 53 50 48 47 45 41 40 40 39 39 40 40 37 33 31 30 27 26 27 28 33 44 53 55 52 51 54 58 60 60 61 63 64 65 67 70 73 75 78 82 85 91 99 106 109 109 109 110 112 113 113 113 114 113 112 112 112 112 114 115 116 118 119 121 121 122 124
85 84 82 80 78 77 75 75 74 72 70 68 65 61 57 55 53 50 45 40 39 39 37 36 37 37 35 34 36 37 38 37 36 33 29 29 31 31 36 50 61 58 52 52 57 62 64 65 65 66 67 69 70 73 75 77 80 83 87 93 99 105 108 109 110 111 113 113 113 114 114 114 113 112 112 114 115 116 116 117 119 121 123 124 126
84 83 81 80 78 77 75 73 71 68 66 63 59 55 53 49 45 41 37 33 30 29 27 27 31 32 31 30 32 34 35 38 39 37 35 36 37 37 40 50 60 58 52 52 55 59 64 68 71 71 71 72 72 73 75 78 80 83 87 92 97 101 105 108 109 111 113 114 114 114 114 113 113 113 114 115 117 118 118 120 122 124 126 128 129